Regional Weather Roundup
Issued by NWS Mt. Holly, NJ

Home | Current Version | Previous Version | Text Only | Print | Product List | Glossary On
Versions: 1 2 3 4 5 6 7 8 9 10 11 12 13 14 15 16 17 18 19 20 21 22 23 24 25 26 27 28 29 30 31 32 33 34 35 36 37 38 39 40 41 42 43 44 45 46 47 48 49 50
000
ASUS41 KPHI 301012
RWRPHI

REGIONAL WEATHER ROUNDUP
NATIONAL WEATHER SERVICE MOUNT HOLLY NJ
600 AM EDT THU JUL 30 2015

NOTE:  "FAIR" INDICATES FEW OR NO CLOUDS BELOW 12,000 FEET WITH NO
SIGNIFICANT WEATHER AND/OR OBSTRUCTIONS TO VISIBILITY.

 * = STATION DOES NOT REPORT PRECIPITATION (E.G. RAIN, SNOW, ETC.)
        OR FOG.

NJZ015>026-301100-
SOUTHERN NEW JERSEY

CITY           SKY/WX    TMP DP  RH WIND       PRES   REMARKS
POMONA         PTCLDY    76  72  87 S9        29.94S
RIO GRANDE*    CLEAR     73  72  94 S8        29.95S
MILLVILLE      CLOUDY    77  73  87 VRB3      29.94R
WRIGHTSTOWN    PTCLDY    72  72  99 S3        29.91S
MOUNT HOLLY    PTCLDY    73  71  93 CALM      29.92S
TRENTON        MOCLDY    76  72  87 S8        29.91S

$$
NJZ001>014-301100-
NORTHERN NEW JERSEY

CITY           SKY/WX    TMP DP  RH WIND       PRES   REMARKS
SUSSEX         MOCLDY    71  69  93 CALM      29.91S FOG
ANDOVER*         N/A     71  70  96 CALM      29.92S
MORRISTOWN     CLOUDY    77  72  83 S3        29.91S
NEWARK         MOCLDY    77  73  87 S6        29.90S
TETERBORO      PTCLDY    78  71  79 S7        29.89S
CALDWELL       PTCLDY    76  71  85 CALM      29.91S
SOMERVILLE     MOCLDY    72  69  90 CALM      29.89S
ALLAIRE*       MOCLDY    73  66  78 SW6       29.93S
TOMS RIVER*      N/A     73  72  94 S6        29.94S

$$
PAZ043-044-047-054-055-060>062-066>071-301100-
EASTERN PENNSYLVANIA

CITY           SKY/WX    TMP DP  RH WIND       PRES   REMARKS
PHILADELPHIA   MOCLDY    78  72  81 S9        29.92S
NORTH PHILA    PTCLDY    78  70  76 S7        29.93S
BLUE BELL      MOCLDY    77  73  88 CALM      29.91S
DOYLESTOWN     MOCLDY    74  72  93 S3        29.92R
QUAKERTOWN*    CLOUDY    75  73  94 S3        29.93S
POTTSTOWN      CLOUDY    76  74  93 S3        29.93S
LANCASTER      PTCLDY    76  73  91 S3        29.91S
COATESVILLE    CLOUDY    73  73 100 CALM      29.94R FOG
READING        PTCLDY    76  72  87 CALM      29.89S
ALLENTOWN      MOCLDY    75  71  87 CALM      29.91S
MOUNT POCONO     N/A    N/A N/A N/A MISG      29.97S
HAZLETON       CLOUDY    73  72  94 CALM      29.97S FOG
WILKES BARRE   MOCLDY    74  70  87 CALM      29.91S FOG

$$
DEZALL-MDZ008-012-015-019-020-301100-
DELAWARE AND EASTERN MARYLAND

CITY           SKY/WX    TMP DP  RH WIND       PRES   REMARKS
WILMINGTON     CLEAR     76  72  87 S3        29.93R
DOVER          PTCLDY    75  75 100 S8        29.92R
GEORGETOWN     PTCLDY    74  72  93 S6        29.95S
EASTON         PTCLDY    79  75  89 SW8       29.97S
ABERDEEN       MOCLDY    79  75  89 SW12      29.92
PATUXENT       PTCLDY    76  72  87 SW9       29.93S
OCEAN CITY     PTCLDY    77  73  87 SW7       29.95F
WALLOPS ISLAND CLEAR     76  74  93 S9        29.96S
CAMBRIDGE      CLEAR     79  72  78 S3        29.94R
SALISBURY      CLEAR     74  72  93 S3        29.95S

$$
PAZ001-021-NYZ056-072-MDZ011-DCZ001-301100-
OTHER NEARBY LOCATIONS

CITY           SKY/WX    TMP DP  RH WIND       PRES   REMARKS
HARRISBURG     CLOUDY    76  71  85 S3        29.89S
STATE COLLEGE  CLEAR     70  68  94 CALM      29.91S FOG
WILLIAMSPORT   MOCLDY    72  68  87 CALM      29.87S
BINGHAMTON     MOCLDY    70  69  97 S8        29.90F FOG
NEW YORK CITY  PTCLDY    79  71  76 VRB3      29.93S
BALTIMORE      MOCLDY    76  73  91 VRB5      29.91S
WASHINGTON DC  MOCLDY    80  73  79 S14       29.92R

$$



USA.gov is the U.S. government's official web portal to all federal, state and local government web resources and services.